Showing default

SKY MEXICO-1, 40664

Orbit data source: Space-Track

SKY MEXICO-1, 40664 is a Mexican payload satellite in GEO that was launched on Wed, 27 May 2015 UTC via an ARIANE 5ECA launch vehicle from the French Guiana (FRGUI). Payload-class satellites include a variety of spacecraft equipped with specific instruments for various scientific and technological missions. These include communications satellites like Starlink; space stations such as the ISS; scientific satellites like the Hubble; Earth observation satellites from companies like Planet Labs, Umbra, and HawkEye 360; GPS; miniature CubeSats for education and research; and military/defense satellites.

Loading next visibility...
Identifier
40664, 2015-026B
Orbit
GEO
Country
Flag of MXMX / MEX
Related business
Manufacturer
OATK SSG
Mission
Operational Commercial Communications
Bus & Motor
GEOSTAR-2, IHI BT-4
Mass
3,182 kg wet, 1,260 kg dry
Launch date (UTC)
2015-05-27 (10 years ago)
Launch vehicle
ARIANE 5ECA
Launch site
French Guiana (FRGUI)
Object type
Payload
Rocket body
Debris
Shape & HBR
Box + 2 Pan, 11.2 m
Radar Cross Section
28.221 m², Large (>1 m²)

Expand to show TLE details & history
Last TLE update: 9 hours ago

TLE from 9 hours ago
0 SKY MEXICO-1
1 40664U 15026B   25304.52478830 -.00000224  00000-0  00000+0 0  9993
2 40664   0.0165 276.1112 0002142 305.5635 288.5926  1.00272471 38162
Epoch: 2025-10-31T12:35Z
TLE epoch observation values (Epoch: 2025-10-31T12:35:41.709Z)
Latitude
-0.03009°
Longitude
-78.78468°
Altitude
35,783.006 km
Speed
3.075 km/s
True Right ascension
10h 00m 49s
True Declination
0° 01' 48"
Sunlit
Object was in daylight at epoch
Visualization orbit readout
Latitude
Unknown
Longitude
Unknown
Altitude
Unknown
Speed
Unknown
Apparent Right ascension
Unknown
Apparent Declination
Unknown
Sunlit
N/A
Visualization observer readout
Local Sidereal Time
17:35:11
Azimuth
Unknown
Elevation
Unknown
Doppler factor
Unknown
Orbital elements
Apogee altitude
35,796.505 km
Perigee altitude
35,778.441 km
Semi-major axis
42,165.61 km
Eccentricity
0.00021
Inclination
0.0165°
RAAN
276.1112°
Arg. of periapsis
305.5635°
True anomaly
288.56933°
Mean anomaly
288.5926°
Eccentric anomaly
288.58097°
Mean motion
0.25067 °/min
Orbital period
1,436.14 mins
BSTAR
0
Loading maneuver chart data...
Computing Atmospheric mass density...
Loading historical data...
Loading historical data...
Loading historical data...
Loading historical data...
Loading historical data...
Loading historical data...
Loading historical data...
Other satellites on launch #26 in the year 2015 (2015-05-27 UTC)

Documentation

Showing up to 5 results
|